This is the latest recevied weather packets stored in our database for station/object KE8ZLU. If no packets are shown the sender has not sent any weather packets the latest 10 day(s).
| Time | Temp. | Humidity | Pressure | Rain* | Wind** | Luminosity | Snow |
|---|---|---|---|---|---|---|---|
| 1777259471 | 10° C | 67% | 1021.3 hPa | 0 mm | - | 0 W/m² | - |
| 1777259168 | 10.56° C | 68% | 1021.4 hPa | 0 mm | - | 0 W/m² | - |
| 1777258865 | 10.56° C | 67% | 1021.3 hPa | 0 mm | - | 0 W/m² | - |
| 1777258562 | 10.56° C | 67% | 1021.3 hPa | 0 mm | - | 0 W/m² | - |
| 1777258258 | 10.56° C | 66% | 1021.3 hPa | 0 mm | - | 0 W/m² | - |
| 1777257955 | 10.56° C | 66% | 1021.4 hPa | 0 mm | - | 0 W/m² | - |
| 1777257653 | 11.11° C | 64% | 1021.4 hPa | 0 mm | - | 0 W/m² | - |
| 1777257350 | 11.11° C | 64% | 1021.4 hPa | 0 mm | - | 0 W/m² | - |
| 1777257047 | 11.11° C | 63% | 1021.8 hPa | 0 mm | - | 0 W/m² | - |
| 1777256744 | 11.11° C | 64% | 1021.5 hPa | 0 mm | - | 0 W/m² | - |
| 1777256440 | 11.67° C | 62% | 1021.6 hPa | 0 mm | - | 0 W/m² | - |
| 1777256135 | 11.11° C | 64% | 1021.7 hPa | 0 mm | - | 0 W/m² | - |
| 1777255832 | 11.67° C | 65% | 1021.4 hPa | 0 mm | - | 0 W/m² | - |
| 1777255528 | 11.11° C | 63% | 1021.5 hPa | 0 mm | - | 0 W/m² | - |
| 1777255225 | 11.67° C | 64% | 1021.5 hPa | 0 mm | - | 0 W/m² | - |
| 1777254920 | 11.67° C | 64% | 1021.6 hPa | 0 mm | - | 0 W/m² | - |
| 1777254618 | 11.67° C | 65% | 1021.6 hPa | 0 mm | - | 0 W/m² | - |
| 1777254314 | 11.67° C | 65% | 1021.7 hPa | 0 mm | - | 0 W/m² | - |
| 1777254010 | 11.67° C | 67% | 1021.8 hPa | 0 mm | - | 0 W/m² | - |
| 1777253707 | 11.67° C | 65% | 1021.9 hPa | 0 mm | - | 0 W/m² | - |
| 1777253404 | 11.67° C | 67% | 1021.9 hPa | 0 mm | - | 0 W/m² | - |
| 1777253101 | 11.67° C | 68% | 1021.6 hPa | 0 mm | - | 0 W/m² | - |
| 1777252799 | 11.67° C | 67% | 1021.5 hPa | 0 mm | - | 0 W/m² | - |
| 1777252496 | 12.22° C | 67% | 1021.4 hPa | 0 mm | - | 0 W/m² | - |
| 1777252193 | 12.78° C | 66% | 1021.6 hPa | 0 mm | - | 0 W/m² | - |
* Rain latest hour (hover to see other rain measurements)
** Current wind speed in m/s (hover to see current wind gust speed)